(146332) = 1998 YG11 = 2001 OL

Discovered at Palomar on 2001-07-17 by NEAT.

Orbit

Orbit type: Main Belt

Note: WebGL enabled browser required.

epoch2024-03-31.0
epoch JD2460400.5
perihelion date2022-09-26.09700
perihelion JD2459848.59700
argument of perihelion (°)50.65241
ascending node (°)350.51981
inclination (°)2.70937
eccentricity0.2300048
perihelion distance (AU)1.9637799
Tisserand w.r.t. Jupiter3.4
ΔV w.r.t. Earth (km/sec)8.9
semimajor axis (AU)2.5503794
mean anomaly (°)133.55477
mean daily motion (°/day)0.24198960
aphelion distance (AU)3.137
period (years)4.07
P-vector [x]0.75259178
P-vector [y]0.58867824
P-vector [z]0.29506531
Q-vector [x]-0.65844134
Q-vector [y]0.67805728
Q-vector [z]0.32663945
absolute magnitude15.52
phase slope0.15
uncertainty0
referenceMPEC 2024-F14
observations used1120
oppositions16
arc length (days)9221
first opposition used1998
last opposition used2024
residual rms (arc-secs)0.59
perturbers coarse indicatorM-v
perturbers precise indicator003Ek
first observation date used1998-12-18.0
last observation date used2024-03-17.0
computer nameMPCLINUX
JD of orbit computation2456494.376626
perihelion JD uncertainty (days)8.0432E-05
argument of perihelion uncertainty (°)1.3291E-04
ascending node uncertainty (°)1.3174E-04
inclination uncertainty (°)4.9014E-06
eccentricity uncertainty 5.1493E-08
perihelion distance uncertainty (AU)1.2939E-07
Minimum Orbit Intersection Distances (in AU)
for orbit epoch: 2460400.5, reference: E2024-GB3
Mercury1.64271
Venus1.24328
Earth0.97355
Mars0.49043
Jupiter2.28555
Saturn6.59287
Uranus15.4859
Neptune27.5245

Observations

1139 total observations over interval: 1998 12 18.08467 – 2024 03 17.520649
These data are available for download (format description).

Date (UT) J2000 RA J2000 Dec Magn Location Ref
1998 12 18.08467 09 58 09.19 +15 14 46.3 20.0 V 910 – Caussols-ODAS MPS 3471
1998 12 18.10791 09 58 09.34 +15 14 46.2 20.3 V 910 – Caussols-ODAS MPS 3471
1998 12 18.13097 09 58 09.50 +15 14 45.8 20.4 V 910 – Caussols-ODAS MPS 3471
1998 12 26.06322 09 58 10.51 +15 16 11.7 19.7 V 910 – Caussols-ODAS MPS 3471
1998 12 26.08584 09 58 10.30 +15 16 13.0 19.9 V 910 – Caussols-ODAS MPS 3471
1998 12 26.10887 09 58 10.10 +15 16 13.9 19.9 V 910 – Caussols-ODAS MPS 3471
1999 02 12.27272 09 22 30.64 +17 48 19.8 18.2 R 699 – Lowell Observatory-LONEOS MPS 58905
1999 02 12.29822 09 22 29.06 +17 48 25.2   699 – Lowell Observatory-LONEOS MPS 58905
1999 02 12.32373 09 22 27.48 +17 48 30.9   699 – Lowell Observatory-LONEOS MPS 58905
2001 06 22.30091 20 52 31.20 -21 03 17.8 20.6   644 – Palomar Mountain/NEAT MPS 32852
2001 06 22.31703 20 52 30.85 -21 03 19.7 20.1   644 – Palomar Mountain/NEAT MPS 32852
2001 06 22.32746 20 52 30.63 -21 03 21.3 20.0   644 – Palomar Mountain/NEAT MPS 32852
2001 07 17.41695 20 35 51.98 -22 09 52.3 19.0   644 – Palomar Mountain/NEAT MPS 32438
2001 07 17.42793 20 35 51.33 -22 09 54.8 19.0   644 – Palomar Mountain/NEAT MPS 32438
2001 07 17.43893 20 35 50.65 -22 09 56.0 19.6   644 – Palomar Mountain/NEAT MPS 32438
2001 07 18.51946 20 34 49.60 -22 13 12.6 20.8   608 – Haleakala-AMOS MPS 32438
2001 07 18.53035 20 34 48.97 -22 13 15.4 20.2   608 – Haleakala-AMOS MPS 32438
2001 07 18.54113 20 34 48.31 -22 13 16.9 20.2   608 – Haleakala-AMOS MPS 32438
2001 07 20.28319 20 33 08.06 -22 18 34.2 18.8   644 – Palomar Mountain/NEAT MPS 32438
2001 07 20.29379 20 33 07.40 -22 18 36.3 18.7   644 – Palomar Mountain/NEAT MPS 32438
2001 07 20.30413 20 33 06.78 -22 18 38.1 18.7   644 – Palomar Mountain/NEAT MPS 32438
2001 07 23.55508 20 29 53.07 -22 28 17.1 19.7   608 – Haleakala-AMOS MPS 32438
2001 07 23.56576 20 29 52.39 -22 28 19.2 19.5   608 – Haleakala-AMOS MPS 32438
2001 07 23.57702 20 29 51.69 -22 28 21.2 19.6   608 – Haleakala-AMOS MPS 32438
2001 07 26.23922 20 27 09.85 -22 35 58.5 18.4   644 – Palomar Mountain/NEAT MPS 32438
2001 07 26.25113 20 27 09.06 -22 36 00.6 18.6   644 – Palomar Mountain/NEAT MPS 32438
2001 07 26.26171 20 27 08.40 -22 36 02.7 18.7   644 – Palomar Mountain/NEAT MPS 32438
2001 07 29.33395 20 23 58.71 -22 44 23.4 19.3   608 – Haleakala-AMOS MPS 32438
2001 07 29.34520 20 23 58.00 -22 44 24.8 19.9   608 – Haleakala-AMOS MPS 32438
2001 07 29.35585 20 23 57.34 -22 44 27.2 19.0   608 – Haleakala-AMOS MPS 32438
2001 07 31.26641 20 21 58.96 -22 49 21.1 18.9   644 – Palomar Mountain/NEAT MPS 32852
2001 07 31.27696 20 21 58.26 -22 49 23.2 19.0   644 – Palomar Mountain/NEAT MPS 32852
2001 07 31.28877 20 21 57.51 -22 49 24.7 18.5   644 – Palomar Mountain/NEAT MPS 32852
2001 08 11.33809 20 10 56.87 -23 11 58.9 19.6   608 – Haleakala-AMOS MPS 32852
2001 08 11.34880 20 10 56.25 -23 12 00.0 19.5   608 – Haleakala-AMOS MPS 32852
2001 08 11.36009 20 10 55.58 -23 12 01.4 19.5   608 – Haleakala-AMOS MPS 32852
2001 08 16.21257 20 06 35.03 -23 18 19.3 18.4   704 – Lincoln Laboratory ETS, New Mexico MPS 32852
2001 08 16.22515 20 06 34.38 -23 18 20.2 18.9   704 – Lincoln Laboratory ETS, New Mexico MPS 32852
2001 08 16.25028 20 06 33.03 -23 18 21.6 18.7   704 – Lincoln Laboratory ETS, New Mexico MPS 32852
2001 08 16.26269 20 06 32.34 -23 18 22.7 18.9   704 – Lincoln Laboratory ETS, New Mexico MPS 32852
2001 08 19.20988 20 04 08.21 -23 21 00.8 18.3   704 – Lincoln Laboratory ETS, New Mexico MPS 33348
2001 08 19.22253 20 04 07.70 -23 21 01.7 18.7   704 – Lincoln Laboratory ETS, New Mexico MPS 33348
2001 08 19.23511 20 04 06.99 -23 21 01.5 18.9   704 – Lincoln Laboratory ETS, New Mexico MPS 33348
2001 08 19.24771 20 04 06.37 -23 21 01.5 18.7   704 – Lincoln Laboratory ETS, New Mexico MPS 33348
2001 08 19.26035 20 04 05.80 -23 21 02.0 19.2   704 – Lincoln Laboratory ETS, New Mexico MPS 33348
2001 08 23.21255 20 01 12.33 -23 23 05.2 19.6   704 – Lincoln Laboratory ETS, New Mexico MPS 33348
2001 08 23.22652 20 01 11.85 -23 23 07.5 19.8   704 – Lincoln Laboratory ETS, New Mexico MPS 33348
2001 08 23.23940 20 01 11.27 -23 23 06.6 19.7   704 – Lincoln Laboratory ETS, New Mexico MPS 33348
2001 08 24.22679 20 00 31.83 -23 23 23.7 19.1   704 – Lincoln Laboratory ETS, New Mexico MPS 34442
2001 08 24.24091 20 00 31.23 -23 23 23.6 18.7   704 – Lincoln Laboratory ETS, New Mexico MPS 34442
2001 08 24.25446 20 00 30.67 -23 23 23.7 18.8   704 – Lincoln Laboratory ETS, New Mexico MPS 34442
2001 08 24.26799 20 00 30.15 -23 23 23.9 19.1   704 – Lincoln Laboratory ETS, New Mexico MPS 34442
2002 12 31.39429 09 16 29.70 +19 18 00.3 18.3   704 – Lincoln Laboratory ETS, New Mexico MPS 71334
2002 12 31.40946 09 16 29.17 +19 18 01.5 18.9   704 – Lincoln Laboratory ETS, New Mexico MPS 71334
2002 12 31.42467 09 16 28.55 +19 18 04.3 18.3   704 – Lincoln Laboratory ETS, New Mexico MPS 71334
2002 12 31.43964 09 16 28.05 +19 18 07.1 18.7   704 – Lincoln Laboratory ETS, New Mexico MPS 71334
2002 12 31.45567 09 16 27.41 +19 18 09.2 18.3   704 – Lincoln Laboratory ETS, New Mexico MPS 71334
2003 01 05.37791 09 13 15.43 +19 32 11.2 19.0   704 – Lincoln Laboratory ETS, New Mexico MPS 69728
2003 01 05.40309 09 13 14.30 +19 32 16.9 18.9   704 – Lincoln Laboratory ETS, New Mexico MPS 69728
2003 01 05.43668 09 13 12.72 +19 32 22.9 18.8   704 – Lincoln Laboratory ETS, New Mexico MPS 69728
2003 01 05.45170 09 13 12.09 +19 32 25.2 19.2   704 – Lincoln Laboratory ETS, New Mexico MPS 69728
2003 01 05.46661 09 13 11.39 +19 32 29.3 19.4   704 – Lincoln Laboratory ETS, New Mexico MPS 69728
2003 01 09.25718 09 10 15.08 +19 44 36.6 18.9   704 – Lincoln Laboratory ETS, New Mexico MPS 69728
2003 01 09.27192 09 10 14.25 +19 44 39.8 19.2   704 – Lincoln Laboratory ETS, New Mexico MPS 69728
2003 01 09.28706 09 10 13.46 +19 44 42.4 19.3   704 – Lincoln Laboratory ETS, New Mexico MPS 69728
2003 01 09.30181 09 10 12.78 +19 44 45.7 19.7   704 – Lincoln Laboratory ETS, New Mexico MPS 69728
2003 01 09.31651 09 10 12.01 +19 44 49.1 19.3   704 – Lincoln Laboratory ETS, New Mexico MPS 69728
2003 01 27.18959 08 52 33.49 +20 46 23.8 18.2 R 699 – Lowell Observatory-LONEOS MPS 71334
2003 01 27.20748 08 52 32.36 +20 46 26.8   699 – Lowell Observatory-LONEOS MPS 71334
2003 01 27.29454 08 52 26.54 +20 46 44.7   699 – Lowell Observatory-LONEOS MPS 71334
2003 01 27.31249 08 52 25.31 +20 46 47.4   699 – Lowell Observatory-LONEOS MPS 71334
2003 01 27.48215 08 52 14.26 +20 47 21.2 18.5   608 – Haleakala-AMOS MPS 71334
2003 01 27.49288 08 52 13.55 +20 47 23.4 18.8   608 – Haleakala-AMOS MPS 71334
2003 01 27.50361 08 52 12.81 +20 47 25.5 18.8   608 – Haleakala-AMOS MPS 71334
2003 01 30.23710 08 49 16.46 +20 55 59.1 18.0 R 699 – Lowell Observatory-LONEOS MPS 71334
2003 01 30.25487 08 49 15.26 +20 56 02.1   699 – Lowell Observatory-LONEOS MPS 71334
2003 01 30.27275 08 49 14.10 +20 56 04.6   699 – Lowell Observatory-LONEOS MPS 71334
2003 01 30.29083 08 49 12.86 +20 56 08.5   699 – Lowell Observatory-LONEOS MPS 71334
2003 02 01.31325 08 47 02.77 +21 02 07.4 18.5   704 – Lincoln Laboratory ETS, New Mexico MPS 71334
2003 02 01.32844 08 47 01.77 +21 02 09.8 18.8   704 – Lincoln Laboratory ETS, New Mexico MPS 71334
2003 02 01.34360 08 47 00.78 +21 02 12.8 18.7   704 – Lincoln Laboratory ETS, New Mexico MPS 71334
2003 02 01.35881 08 46 59.80 +21 02 15.5 18.8   704 – Lincoln Laboratory ETS, New Mexico MPS 71334
2003 02 01.37412 08 46 58.74 +21 02 18.4 19.0   704 – Lincoln Laboratory ETS, New Mexico MPS 71334
2003 02 04.25233 08 43 57.01 +21 10 11.6 18.6   704 – Lincoln Laboratory ETS, New Mexico MPS 73154
2003 02 04.26766 08 43 56.03 +21 10 14.2 18.5   704 – Lincoln Laboratory ETS, New Mexico MPS 73154
2003 02 04.28290 08 43 55.01 +21 10 15.4 19.4   704 – Lincoln Laboratory ETS, New Mexico MPS 73154
2003 02 04.29838 08 43 54.03 +21 10 18.5 19.5   704 – Lincoln Laboratory ETS, New Mexico MPS 73154
2003 02 04.31384 08 43 52.98 +21 10 19.8 19.6   704 – Lincoln Laboratory ETS, New Mexico MPS 73154
2003 02 07.26026 08 40 52.31 +21 17 36.8 18.5   704 – Lincoln Laboratory ETS, New Mexico MPS 73154
2003 02 07.27474 08 40 51.39 +21 17 38.9 18.8   704 – Lincoln Laboratory ETS, New Mexico MPS 73154
